Location: Dal�� Lhota
(48.7500°N, 14.0167°E)
Time: 23:00:48
(UTC+00:00)

Cosmos 2251 Rocket - Pass Details

Date: 24 September 2020
Orbit: 765 x 792 km, 74.0° (Epoch: 25 October)

Event Time Altitude Azimuth Distance (km) Brightness Sun altitude
Rises 20:06:43 0° 334° (NNW) 3,298 7.7 -30.0°
Reaches altitude 10° 20:09:09 10° 331° (NNW) 2,362 6.8 -30.3°
Enters shadow 20:13:44 55° 288° (WNW) 941 4.1 -30.9°
